Time,TemperatureF,DewpointF,PressureIn,WindDirection,WindDirectionDegrees,WindSpeedMPH,WindSpeedGustMPH,Humidity,HourlyPrecipIn,Conditions,Clouds,dailyrainin,SoftwareType,DateUTC
2013-03-08 00:00:00,31.1,26.0,29.31,NW,315,7.0,11.0,82,0.00,,,0.00,Rainwise IP-100,2013-03-08 05:00:00,
2013-03-08 00:05:00,31.0,26.0,29.31,NNW,337,6.0,8.0,82,0.00,,,0.00,Rainwise IP-100,2013-03-08 05:05:00,
2013-03-08 00:10:00,31.0,26.0,29.31,NW,315,6.0,12.0,81,0.00,,,0.00,Rainwise IP-100,2013-03-08 05:10:00,
2013-03-08 00:15:00,31.1,26.0,29.31,NW,315,9.0,12.0,81,0.00,,,0.00,Rainwise IP-100,2013-03-08 05:15:00,
2013-03-08 00:20:00,31.1,26.0,29.31,NW,315,2.0,12.0,81,0.00,,,0.00,Rainwise IP-100,2013-03-08 05:20:00,
2013-03-08 00:25:00,31.0,26.0,29.31,NW,315,9.0,10.0,82,0.00,,,0.00,Rainwise IP-100,2013-03-08 05:25:00,
2013-03-08 00:30:00,31.0,26.0,29.31,NW,315,10.0,11.0,81,0.00,,,0.00,Rainwise IP-100,2013-03-08 05:30:00,
2013-03-08 00:32:00,30.9,26.0,29.31,WNW,292,6.0,12.0,81,0.00,,,0.00,Rainwise IP-100,2013-03-08 05:32:00,
2013-03-08 00:37:00,30.9,26.0,29.31,NW,315,8.0,11.0,80,0.00,,,0.00,Rainwise IP-100,2013-03-08 05:37:00,
2013-03-08 00:42:00,30.9,26.0,29.31,NNW,337,5.0,12.0,81,0.00,,,0.00,Rainwise IP-100,2013-03-08 05:42:00,
2013-03-08 00:47:00,30.9,26.0,29.31,NNW,337,11.0,11.0,82,0.00,,,0.00,Rainwise IP-100,2013-03-08 05:47:00,
2013-03-08 00:52:00,30.9,26.0,29.31,North,360,4.0,14.0,81,0.00,,,0.00,Rainwise IP-100,2013-03-08 05:52:00,
2013-03-08 00:57:00,30.9,26.0,29.31,NNW,337,7.0,14.0,81,0.00,,,0.00,Rainwise IP-100,2013-03-08 05:57:00,
2013-03-08 01:02:00,30.8,26.0,29.31,NNW,337,5.0,12.0,80,0.00,,,0.00,Rainwise IP-100,2013-03-08 06:02:00,
2013-03-08 01:07:00,30.8,26.0,29.31,North,360,7.0,14.0,81,0.00,,,0.00,Rainwise IP-100,2013-03-08 06:07:00,
2013-03-08 01:12:00,30.7,26.0,29.31,NNW,337,4.0,11.0,82,0.00,,,0.00,Rainwise IP-100,2013-03-08 06:12:00,
2013-03-08 01:17:00,30.4,26.0,29.31,NNW,337,5.0,12.0,83,0.00,,,0.00,Rainwise IP-100,2013-03-08 06:17:00,
2013-03-08 01:22:00,30.1,26.0,29.31,NNW,337,7.0,12.0,84,0.00,,,0.00,Rainwise IP-100,2013-03-08 06:22:00,
2013-03-08 01:27:00,29.9,26.0,29.31,NNW,337,7.0,11.0,85,0.00,,,0.00,Rainwise IP-100,2013-03-08 06:27:00,
2013-03-08 01:32:00,29.7,28.0,29.31,NNW,337,9.0,13.0,86,0.00,,,0.00,Rainwise IP-100,2013-03-08 06:32:00,
2013-03-08 01:37:00,29.5,28.0,29.31,NNW,337,9.0,14.0,88,0.00,,,0.00,Rainwise IP-100,2013-03-08 06:37:00,
2013-03-08 01:42:00,29.2,26.0,29.32,NNW,337,5.0,11.0,90,0.00,,,0.00,Rainwise IP-100,2013-03-08 06:42:00,
2013-03-08 01:47:00,28.9,28.0,29.32,NW,315,4.0,11.0,91,0.00,,,0.00,Rainwise IP-100,2013-03-08 06:47:00,
2013-03-08 01:52:00,28.8,28.0,29.32,NNW,337,7.0,9.0,93,0.00,,,0.00,Rainwise IP-100,2013-03-08 06:52:00,
2013-03-08 01:57:00,28.7,28.0,29.32,NW,315,4.0,9.0,93,0.00,,,0.00,Rainwise IP-100,2013-03-08 06:57:00,
2013-03-08 02:02:00,28.6,28.0,29.31,NW,315,6.0,12.0,94,0.00,,,0.00,Rainwise IP-100,2013-03-08 07:02:00,
2013-03-08 02:07:00,28.6,28.0,29.32,NW,315,4.0,12.0,94,0.00,,,0.00,Rainwise IP-100,2013-03-08 07:07:00,
2013-03-08 02:12:00,28.5,28.0,29.32,NW,315,6.0,11.0,94,0.00,,,0.00,Rainwise IP-100,2013-03-08 07:12:00,
2013-03-08 02:17:00,28.5,28.0,29.32,NNW,337,7.0,11.0,94,0.00,,,0.00,Rainwise IP-100,2013-03-08 07:17:00,
2013-03-08 02:22:00,28.4,26.0,29.32,NW,315,5.0,11.0,94,0.00,,,0.00,Rainwise IP-100,2013-03-08 07:22:00,
2013-03-08 02:27:00,28.3,26.0,29.32,NW,315,6.0,9.0,94,0.00,,,0.00,Rainwise IP-100,2013-03-08 07:27:00,
2013-03-08 02:32:00,28.2,26.0,29.32,NW,315,9.0,12.0,94,0.00,,,0.00,Rainwise IP-100,2013-03-08 07:32:00,
2013-03-08 02:37:00,28.1,26.0,29.32,NW,315,6.0,13.0,94,0.00,,,0.00,Rainwise IP-100,2013-03-08 07:37:00,
2013-03-08 02:42:00,28.1,26.0,29.32,NW,315,7.0,10.0,94,0.00,,,0.00,Rainwise IP-100,2013-03-08 07:42:00,
2013-03-08 02:47:00,27.9,26.0,29.32,NW,315,7.0,15.0,94,0.00,,,0.00,Rainwise IP-100,2013-03-08 07:47:00,
2013-03-08 02:52:00,27.9,26.0,29.32,NNW,337,6.0,11.0,94,0.00,,,0.00,Rainwise IP-100,2013-03-08 07:52:00,
2013-03-08 02:57:00,27.9,26.0,29.32,NNW,337,4.0,10.0,94,0.00,,,0.00,Rainwise IP-100,2013-03-08 07:57:00,
2013-03-08 03:02:00,27.9,26.0,29.32,NNW,337,6.0,9.0,94,0.00,,,0.00,Rainwise IP-100,2013-03-08 08:02:00,
2013-03-08 03:07:00,27.9,26.0,29.32,NNW,337,3.0,9.0,94,0.00,,,0.00,Rainwise IP-100,2013-03-08 08:07:00,
2013-03-08 03:12:00,27.9,26.0,29.32,NNW,337,7.0,7.0,94,0.00,,,0.00,Rainwise IP-100,2013-03-08 08:12:00,
2013-03-08 03:17:00,27.9,26.0,29.32,NNW,337,4.0,11.0,94,0.00,,,0.00,Rainwise IP-100,2013-03-08 08:17:00,
2013-03-08 03:22:00,27.9,26.0,29.32,NNW,337,5.0,7.0,94,0.00,,,0.00,Rainwise IP-100,2013-03-08 08:22:00,
2013-03-08 03:27:00,27.9,26.0,29.32,NW,315,5.0,9.0,94,0.00,,,0.00,Rainwise IP-100,2013-03-08 08:27:00,
2013-03-08 03:32:00,27.9,26.0,29.32,NW,315,5.0,9.0,94,0.00,,,0.00,Rainwise IP-100,2013-03-08 08:32:00,
2013-03-08 03:37:00,27.9,26.0,29.32,WNW,292,8.0,8.0,94,0.00,,,0.00,Rainwise IP-100,2013-03-08 08:37:00,
2013-03-08 03:42:00,27.9,26.0,29.32,NW,315,6.0,10.0,94,0.00,,,0.00,Rainwise IP-100,2013-03-08 08:42:00,
2013-03-08 03:47:00,27.9,26.0,29.32,NNW,337,5.0,9.0,94,0.00,,,0.00,Rainwise IP-100,2013-03-08 08:47:00,
2013-03-08 03:52:00,27.9,26.0,29.33,NNW,337,8.0,12.0,94,0.00,,,0.00,Rainwise IP-100,2013-03-08 08:52:00,
2013-03-08 03:57:00,27.9,26.0,29.33,NNW,337,6.0,10.0,94,0.00,,,0.00,Rainwise IP-100,2013-03-08 08:57:00,
2013-03-08 04:02:00,27.9,26.0,29.33,NW,315,5.0,10.0,94,0.00,,,0.00,Rainwise IP-100,2013-03-08 09:02:00,
2013-03-08 04:07:00,27.9,26.0,29.33,NW,315,4.0,10.0,94,0.00,,,0.00,Rainwise IP-100,2013-03-08 09:07:00,
2013-03-08 04:12:00,27.9,26.0,29.33,NW,315,5.0,9.0,94,0.00,,,0.00,Rainwise IP-100,2013-03-08 09:12:00,
2013-03-08 04:17:00,27.9,26.0,29.33,NW,315,6.0,9.0,94,0.00,,,0.00,Rainwise IP-100,2013-03-08 09:17:00,
2013-03-08 04:22:00,27.9,26.0,29.34,NW,315,3.0,9.0,94,0.00,,,0.00,Rainwise IP-100,2013-03-08 09:22:00,
2013-03-08 04:27:00,27.9,26.0,29.34,NW,315,8.0,12.0,94,0.00,,,0.00,Rainwise IP-100,2013-03-08 09:27:00,
2013-03-08 04:32:00,27.9,26.0,29.34,NW,315,5.0,11.0,94,0.00,,,0.00,Rainwise IP-100,2013-03-08 09:32:00,
2013-03-08 04:37:00,27.9,26.0,29.34,NW,315,6.0,11.0,94,0.00,,,0.00,Rainwise IP-100,2013-03-08 09:37:00,
2013-03-08 04:42:00,27.9,26.0,29.34,NNW,337,5.0,12.0,94,0.00,,,0.00,Rainwise IP-100,2013-03-08 09:42:00,
2013-03-08 04:46:00,27.9,26.0,29.34,NNW,337,9.0,12.0,94,0.00,,,0.00,Rainwise IP-100,2013-03-08 09:46:00,
2013-03-08 04:51:00,27.9,26.0,29.35,NNW,337,7.0,11.0,94,0.00,,,0.00,Rainwise IP-100,2013-03-08 09:51:00,
2013-03-08 04:56:00,27.9,26.0,29.35,NNW,337,7.0,10.0,94,0.00,,,0.00,Rainwise IP-100,2013-03-08 09:56:00,
2013-03-08 05:01:00,27.9,26.0,29.35,NNW,337,8.0,11.0,94,0.00,,,0.00,Rainwise IP-100,2013-03-08 10:01:00,
2013-03-08 05:06:00,27.9,26.0,29.35,NNW,337,7.0,11.0,94,0.00,,,0.00,Rainwise IP-100,2013-03-08 10:06:00,
2013-03-08 05:11:00,27.9,26.0,29.35,North,360,7.0,9.0,94,0.00,,,0.00,Rainwise IP-100,2013-03-08 10:11:00,
2013-03-08 05:16:00,27.9,26.0,29.35,NW,315,11.0,12.0,94,0.00,,,0.00,Rainwise IP-100,2013-03-08 10:16:00,
2013-03-08 05:21:00,27.9,26.0,29.35,NW,315,7.0,12.0,94,0.00,,,0.00,Rainwise IP-100,2013-03-08 10:21:00,
2013-03-08 05:26:00,27.9,26.0,29.35,NW,315,7.0,12.0,94,0.00,,,0.00,Rainwise IP-100,2013-03-08 10:26:00,
2013-03-08 05:31:00,27.9,26.0,29.35,NNW,337,8.0,11.0,94,0.00,,,0.00,Rainwise IP-100,2013-03-08 10:31:00,
2013-03-08 05:36:00,27.9,26.0,29.35,NW,315,8.0,12.0,94,0.00,,,0.00,Rainwise IP-100,2013-03-08 10:36:00,
2013-03-08 05:41:00,27.9,26.0,29.36,NW,315,8.0,11.0,94,0.00,,,0.00,Rainwise IP-100,2013-03-08 10:41:00,
2013-03-08 05:46:00,27.9,26.0,29.36,NNW,337,6.0,11.0,94,0.00,,,0.00,Rainwise IP-100,2013-03-08 10:46:00,
2013-03-08 05:51:00,27.9,26.0,29.36,NW,315,6.0,9.0,94,0.00,,,0.00,Rainwise IP-100,2013-03-08 10:51:00,
2013-03-08 05:56:00,27.9,26.0,29.36,NW,315,7.0,12.0,94,0.00,,,0.00,Rainwise IP-100,2013-03-08 10:56:00,
2013-03-08 06:01:00,27.9,26.0,29.36,NNW,337,4.0,8.0,94,0.00,,,0.00,Rainwise IP-100,2013-03-08 11:01:00,
2013-03-08 06:06:00,28.0,26.0,29.36,NW,315,3.0,9.0,94,0.00,,,0.00,Rainwise IP-100,2013-03-08 11:06:00,
2013-03-08 06:11:00,27.9,26.0,29.36,NNW,337,6.0,7.0,94,0.00,,,0.00,Rainwise IP-100,2013-03-08 11:11:00,
2013-03-08 06:16:00,27.9,26.0,29.36,NNW,337,3.0,7.0,94,0.00,,,0.00,Rainwise IP-100,2013-03-08 11:16:00,
2013-03-08 06:21:00,27.9,26.0,29.37,NNW,337,3.0,7.0,94,0.00,,,0.00,Rainwise IP-100,2013-03-08 11:21:00,
2013-03-08 06:26:00,27.9,26.0,29.36,NW,315,5.0,8.0,94,0.00,,,0.00,Rainwise IP-100,2013-03-08 11:26:00,
2013-03-08 06:31:00,28.0,26.0,29.36,North,360,3.0,12.0,94,0.00,,,0.00,Rainwise IP-100,2013-03-08 11:31:00,
2013-03-08 06:36:00,28.1,26.0,29.37,NW,315,7.0,10.0,94,0.00,,,0.00,Rainwise IP-100,2013-03-08 11:36:00,
2013-03-08 06:41:00,28.1,26.0,29.37,WNW,292,6.0,10.0,94,0.00,,,0.00,Rainwise IP-100,2013-03-08 11:41:00,
2013-03-08 06:46:00,28.1,26.0,29.37,NW,315,4.0,9.0,94,0.00,,,0.00,Rainwise IP-100,2013-03-08 11:46:00,
2013-03-08 06:51:00,28.2,26.0,29.37,WNW,292,8.0,13.0,94,0.00,,,0.00,Rainwise IP-100,2013-03-08 11:51:00,
2013-03-08 06:56:00,28.2,26.0,29.37,NW,315,6.0,12.0,94,0.00,,,0.00,Rainwise IP-100,2013-03-08 11:56:00,
2013-03-08 07:01:00,28.2,26.0,29.37,NW,315,5.0,11.0,94,0.00,,,0.00,Rainwise IP-100,2013-03-08 12:01:00,
2013-03-08 07:06:00,28.4,26.0,29.37,NW,315,7.0,15.0,94,0.00,,,0.00,Rainwise IP-100,2013-03-08 12:06:00,
2013-03-08 07:11:00,28.6,28.0,29.37,NW,315,4.0,12.0,92,0.00,,,0.00,Rainwise IP-100,2013-03-08 12:11:00,
2013-03-08 07:16:00,28.7,28.0,29.37,NW,315,4.0,11.0,91,0.00,,,0.00,Rainwise IP-100,2013-03-08 12:16:00,
2013-03-08 07:21:00,28.9,26.0,29.38,NW,315,7.0,11.0,90,0.00,,,0.00,Rainwise IP-100,2013-03-08 12:21:00,
2013-03-08 07:26:00,29.1,26.0,29.38,West,270,4.0,10.0,90,0.00,,,0.00,Rainwise IP-100,2013-03-08 12:26:00,
2013-03-08 07:31:00,29.2,26.0,29.38,West,270,6.0,10.0,90,0.00,,,0.00,Rainwise IP-100,2013-03-08 12:31:00,
2013-03-08 07:36:00,29.4,26.0,29.38,WNW,292,4.0,10.0,89,0.00,,,0.00,Rainwise IP-100,2013-03-08 12:36:00,
2013-03-08 07:41:00,29.6,28.0,29.38,NW,315,4.0,10.0,88,0.00,,,0.00,Rainwise IP-100,2013-03-08 12:41:00,
2013-03-08 07:46:00,29.7,28.0,29.38,NW,315,6.0,8.0,88,0.00,,,0.00,Rainwise IP-100,2013-03-08 12:46:00,
2013-03-08 07:51:00,29.8,28.0,29.38,WNW,292,11.0,11.0,88,0.00,,,0.00,Rainwise IP-100,2013-03-08 12:51:00,
2013-03-08 07:56:00,29.9,28.0,29.38,NW,315,4.0,11.0,87,0.00,,,0.00,Rainwise IP-100,2013-03-08 12:56:00,
2013-03-08 08:01:00,29.9,28.0,29.38,WNW,292,7.0,14.0,86,0.00,,,0.00,Rainwise IP-100,2013-03-08 13:01:00,
2013-03-08 08:06:00,30.2,28.0,29.38,WNW,292,3.0,12.0,86,0.00,,,0.00,Rainwise IP-100,2013-03-08 13:06:00,
2013-03-08 08:11:00,30.5,26.0,29.39,WNW,292,7.0,12.0,85,0.00,,,0.00,Rainwise IP-100,2013-03-08 13:11:00,
2013-03-08 08:16:00,30.9,26.0,29.39,WNW,292,6.0,14.0,84,0.00,,,0.00,Rainwise IP-100,2013-03-08 13:16:00,
2013-03-08 08:21:00,31.1,26.0,29.39,WNW,292,7.0,11.0,85,0.00,,,0.00,Rainwise IP-100,2013-03-08 13:21:00,
2013-03-08 08:26:00,31.3,26.0,29.38,WNW,292,8.0,12.0,84,0.00,,,0.00,Rainwise IP-100,2013-03-08 13:26:00,
2013-03-08 08:31:00,31.6,28.0,29.39,NW,315,7.0,12.0,83,0.00,,,0.00,Rainwise IP-100,2013-03-08 13:31:00,
2013-03-08 08:36:00,31.8,28.0,29.39,WNW,292,7.0,15.0,82,0.00,,,0.00,Rainwise IP-100,2013-03-08 13:36:00,
2013-03-08 08:41:00,31.9,28.0,29.39,NW,315,13.0,14.0,81,0.00,,,0.00,Rainwise IP-100,2013-03-08 13:41:00,
2013-03-08 08:46:00,32.2,28.0,29.39,NNW,337,8.0,14.0,81,0.00,,,0.00,Rainwise IP-100,2013-03-08 13:46:00,
2013-03-08 08:51:00,32.5,28.0,29.39,NW,315,7.0,14.0,80,0.00,,,0.00,Rainwise IP-100,2013-03-08 13:51:00,
2013-03-08 08:56:00,32.6,28.0,29.39,WNW,292,7.0,14.0,80,0.00,,,0.00,Rainwise IP-100,2013-03-08 13:56:00,
2013-03-08 09:01:00,32.7,28.0,29.39,WNW,292,10.0,13.0,80,0.00,,,0.00,Rainwise IP-100,2013-03-08 14:01:00,
2013-03-08 09:06:00,33.0,28.0,29.39,NW,315,6.0,16.0,79,0.00,,,0.00,Rainwise IP-100,2013-03-08 14:06:00,
2013-03-08 09:11:00,33.3,28.0,29.40,NW,315,6.0,15.0,78,0.00,,,0.00,Rainwise IP-100,2013-03-08 14:11:00,
2013-03-08 09:16:00,34.1,28.0,29.40,NW,315,7.0,18.0,76,0.00,,,0.00,Rainwise IP-100,2013-03-08 14:16:00,
2013-03-08 09:21:00,33.9,28.0,29.40,NW,315,7.0,18.0,75,0.00,,,0.00,Rainwise IP-100,2013-03-08 14:21:00,
2013-03-08 09:26:00,34.2,28.0,29.41,NNW,337,8.0,16.0,75,0.00,,,0.00,Rainwise IP-100,2013-03-08 14:26:00,
2013-03-08 09:31:00,34.1,28.0,29.41,NW,315,11.0,16.0,74,0.00,,,0.01,Rainwise IP-100,2013-03-08 14:31:00,
2013-03-08 09:36:00,34.5,28.0,29.41,NNW,337,14.0,21.0,74,0.06,,,0.01,Rainwise IP-100,2013-03-08 14:36:00,
2013-03-08 09:41:00,34.2,26.0,29.41,NW,315,6.0,19.0,69,0.06,,,0.01,Rainwise IP-100,2013-03-08 14:41:00,
2013-03-08 09:46:00,34.5,26.0,29.41,NW,315,12.0,18.0,71,0.00,,,0.01,Rainwise IP-100,2013-03-08 14:46:00,
2013-03-08 09:51:00,35.0,26.0,29.41,NNW,337,6.0,17.0,70,0.00,,,0.01,Rainwise IP-100,2013-03-08 14:51:00,
2013-03-08 09:56:00,35.5,26.0,29.41,NNW,337,6.0,17.0,68,0.00,,,0.01,Rainwise IP-100,2013-03-08 14:56:00,
2013-03-08 10:01:00,35.8,26.0,29.41,NNW,337,19.0,19.0,67,0.00,,,0.01,Rainwise IP-100,2013-03-08 15:01:00,
2013-03-08 10:06:00,35.4,24.0,29.41,NNW,337,14.0,21.0,67,0.00,,,0.01,Rainwise IP-100,2013-03-08 15:06:00,
2013-03-08 10:11:00,35.4,26.0,29.41,NNW,337,15.0,19.0,69,0.00,,,0.01,Rainwise IP-100,2013-03-08 15:11:00,
2013-03-08 10:16:00,35.5,26.0,29.41,NW,315,6.0,20.0,66,0.00,,,0.01,Rainwise IP-100,2013-03-08 15:16:00,
2013-03-08 10:21:00,35.4,24.0,29.41,NNW,337,16.0,17.0,67,0.00,,,0.01,Rainwise IP-100,2013-03-08 15:21:00,
2013-03-08 10:26:00,35.7,26.0,29.41,NNW,337,12.0,18.0,68,0.00,,,0.01,Rainwise IP-100,2013-03-08 15:26:00,
2013-03-08 10:31:00,34.9,24.0,29.41,NW,315,9.0,17.0,67,0.00,,,0.01,Rainwise IP-100,2013-03-08 15:31:00,
2013-03-08 10:36:00,35.3,24.0,29.42,NW,315,9.0,19.0,65,0.00,,,0.01,Rainwise IP-100,2013-03-08 15:36:00,
2013-03-08 10:41:00,35.3,24.0,29.42,North,360,11.0,17.0,65,0.00,,,0.01,Rainwise IP-100,2013-03-08 15:41:00,
2013-03-08 10:46:00,35.4,24.0,29.42,NW,315,11.0,19.0,66,0.00,,,0.01,Rainwise IP-100,2013-03-08 15:46:00,
2013-03-08 10:51:00,35.9,26.0,29.41,NW,315,10.0,19.0,65,0.00,,,0.01,Rainwise IP-100,2013-03-08 15:51:00,
2013-03-08 10:56:00,35.9,26.0,29.42,WNW,292,11.0,16.0,66,0.00,,,0.01,Rainwise IP-100,2013-03-08 15:56:00,
2013-03-08 11:01:00,35.6,26.0,29.42,NNW,337,7.0,17.0,67,0.00,,,0.01,Rainwise IP-100,2013-03-08 16:01:00,
2013-03-08 11:06:00,36.3,26.0,29.41,NW,315,12.0,18.0,66,0.00,,,0.01,Rainwise IP-100,2013-03-08 16:06:00,
2013-03-08 11:11:00,36.6,26.0,29.42,NNW,337,14.0,19.0,65,0.00,,,0.01,Rainwise IP-100,2013-03-08 16:11:00,
2013-03-08 11:16:00,36.7,26.0,29.42,NW,315,11.0,20.0,63,0.00,,,0.01,Rainwise IP-100,2013-03-08 16:16:00,
2013-03-08 11:21:00,36.7,26.0,29.42,NW,315,12.0,21.0,64,0.00,,,0.01,Rainwise IP-100,2013-03-08 16:21:00,
2013-03-08 11:26:00,37.4,26.0,29.42,NNW,337,10.0,21.0,65,0.00,,,0.01,Rainwise IP-100,2013-03-08 16:26:00,
2013-03-08 11:31:00,37.7,28.0,29.42,NW,315,11.0,17.0,64,0.00,,,0.01,Rainwise IP-100,2013-03-08 16:31:00,
2013-03-08 11:36:00,37.9,28.0,29.43,NW,315,6.0,15.0,66,0.00,,,0.01,Rainwise IP-100,2013-03-08 16:36:00,
2013-03-08 11:41:00,37.7,26.0,29.43,NNW,337,4.0,17.0,62,0.00,,,0.01,Rainwise IP-100,2013-03-08 16:41:00,
2013-03-08 11:46:00,37.5,26.0,29.43,NNW,337,11.0,19.0,62,0.00,,,0.01,Rainwise IP-100,2013-03-08 16:46:00,
2013-03-08 11:51:00,37.5,26.0,29.43,NNW,337,11.0,20.0,62,0.00,,,0.01,Rainwise IP-100,2013-03-08 16:51:00,
2013-03-08 11:56:00,37.7,26.0,29.43,WNW,292,19.0,19.0,63,0.00,,,0.02,Rainwise IP-100,2013-03-08 16:56:00,
2013-03-08 12:01:00,37.8,28.0,29.43,NNW,337,13.0,21.0,64,0.06,,,0.02,Rainwise IP-100,2013-03-08 17:01:00,
2013-03-08 12:06:00,37.2,26.0,29.43,NW,315,12.0,19.0,63,0.06,,,0.02,Rainwise IP-100,2013-03-08 17:06:00,
2013-03-08 12:11:00,37.9,26.0,29.43,NW,315,12.0,19.0,63,0.00,,,0.02,Rainwise IP-100,2013-03-08 17:11:00,
2013-03-08 12:16:00,37.5,26.0,29.42,NW,315,10.0,19.0,62,0.00,,,0.02,Rainwise IP-100,2013-03-08 17:16:00,
2013-03-08 12:21:00,37.8,28.0,29.42,NNW,337,10.0,16.0,65,0.00,,,0.02,Rainwise IP-100,2013-03-08 17:21:00,
2013-03-08 12:26:00,37.3,26.0,29.43,WNW,292,7.0,17.0,63,0.00,,,0.02,Rainwise IP-100,2013-03-08 17:26:00,
2013-03-08 12:31:00,37.9,26.0,29.42,NW,315,14.0,17.0,63,0.00,,,0.02,Rainwise IP-100,2013-03-08 17:31:00,
2013-03-08 12:36:00,38.1,26.0,29.42,NW,315,9.0,20.0,63,0.00,,,0.02,Rainwise IP-100,2013-03-08 17:36:00,
2013-03-08 12:41:00,37.6,26.0,29.42,NW,315,15.0,19.0,62,0.00,,,0.02,Rainwise IP-100,2013-03-08 17:41:00,
2013-03-08 12:46:00,37.5,26.0,29.42,NW,315,11.0,17.0,61,0.00,,,0.02,Rainwise IP-100,2013-03-08 17:46:00,
2013-03-08 12:51:00,37.7,26.0,29.42,NNW,337,11.0,22.0,63,0.00,,,0.02,Rainwise IP-100,2013-03-08 17:51:00,
2013-03-08 12:56:00,37.5,26.0,29.42,NW,315,12.0,18.0,62,0.00,,,0.02,Rainwise IP-100,2013-03-08 17:56:00,
2013-03-08 13:01:00,37.9,26.0,29.42,NNW,337,12.0,22.0,61,0.00,,,0.02,Rainwise IP-100,2013-03-08 18:01:00,
2013-03-08 13:06:00,37.8,26.0,29.43,NW,315,13.0,20.0,61,0.00,,,0.02,Rainwise IP-100,2013-03-08 18:06:00,
2013-03-08 13:11:00,37.8,26.0,29.43,NW,315,10.0,19.0,63,0.00,,,0.02,Rainwise IP-100,2013-03-08 18:11:00,
2013-03-08 13:16:00,38.1,28.0,29.42,NNW,337,6.0,18.0,66,0.00,,,0.02,Rainwise IP-100,2013-03-08 18:16:00,
2013-03-08 13:21:00,37.8,26.0,29.42,NNW,337,8.0,21.0,63,0.00,,,0.02,Rainwise IP-100,2013-03-08 18:21:00,
2013-03-08 13:26:00,37.7,26.0,29.43,NNW,337,12.0,21.0,63,0.00,,,0.02,Rainwise IP-100,2013-03-08 18:26:00,
2013-03-08 13:31:00,37.5,26.0,29.42,NNW,337,11.0,19.0,63,0.00,,,0.02,Rainwise IP-100,2013-03-08 18:31:00,
2013-03-08 13:32:00,37.7,26.0,29.42,NW,315,7.0,19.0,63,0.00,,,0.02,Rainwise IP-100,2013-03-08 18:32:00,
2013-03-08 13:37:00,37.9,26.0,29.42,WNW,292,13.0,18.0,61,0.00,,,0.02,Rainwise IP-100,2013-03-08 18:37:00,
2013-03-08 13:42:00,38.7,28.0,29.43,NNW,337,14.0,21.0,62,0.00,,,0.02,Rainwise IP-100,2013-03-08 18:42:00,
2013-03-08 13:47:00,38.3,26.0,29.43,NW,315,12.0,23.0,63,0.00,,,0.02,Rainwise IP-100,2013-03-08 18:47:00,
2013-03-08 13:52:00,37.4,24.0,29.43,NW,315,11.0,21.0,61,0.00,,,0.02,Rainwise IP-100,2013-03-08 18:52:00,
2013-03-08 13:57:00,37.6,26.0,29.43,NNW,337,10.0,19.0,62,0.00,,,0.02,Rainwise IP-100,2013-03-08 18:57:00,
2013-03-08 14:02:00,37.9,26.0,29.42,NNW,337,11.0,17.0,60,0.00,,,0.02,Rainwise IP-100,2013-03-08 19:02:00,
2013-03-08 14:07:00,38.8,28.0,29.42,NW,315,4.0,17.0,61,0.00,,,0.02,Rainwise IP-100,2013-03-08 19:07:00,
2013-03-08 14:12:00,38.5,26.0,29.43,WNW,292,9.0,17.0,60,0.00,,,0.02,Rainwise IP-100,2013-03-08 19:12:00,
2013-03-08 14:17:00,38.6,26.0,29.42,NNW,337,7.0,16.0,58,0.00,,,0.02,Rainwise IP-100,2013-03-08 19:17:00,
2013-03-08 14:22:00,38.9,28.0,29.42,NW,315,14.0,16.0,61,0.00,,,0.02,Rainwise IP-100,2013-03-08 19:22:00,
2013-03-08 14:27:00,38.9,26.0,29.43,NW,315,6.0,19.0,60,0.00,,,0.02,Rainwise IP-100,2013-03-08 19:27:00,
2013-03-08 14:32:00,38.3,26.0,29.42,NW,315,14.0,17.0,59,0.00,,,0.02,Rainwise IP-100,2013-03-08 19:32:00,
2013-03-08 14:37:00,37.9,26.0,29.42,NW,315,14.0,18.0,59,0.00,,,0.02,Rainwise IP-100,2013-03-08 19:37:00,
2013-03-08 14:42:00,39.3,26.0,29.43,North,360,9.0,17.0,58,0.00,,,0.02,Rainwise IP-100,2013-03-08 19:42:00,
2013-03-08 14:47:00,38.7,26.0,29.42,NNW,337,12.0,17.0,58,0.00,,,0.02,Rainwise IP-100,2013-03-08 19:47:00,
2013-03-08 14:52:00,39.2,26.0,29.42,NNW,337,9.0,12.0,58,0.00,,,0.02,Rainwise IP-100,2013-03-08 19:52:00,
2013-03-08 14:57:00,39.2,26.0,29.43,WNW,292,7.0,14.0,57,0.00,,,0.02,Rainwise IP-100,2013-03-08 19:57:00,
2013-03-08 15:02:00,38.4,24.0,29.43,WNW,292,9.0,18.0,56,0.00,,,0.02,Rainwise IP-100,2013-03-08 20:02:00,
2013-03-08 15:07:00,38.7,26.0,29.43,NNW,337,7.0,16.0,58,0.00,,,0.02,Rainwise IP-100,2013-03-08 20:07:00,
2013-03-08 15:12:00,39.4,26.0,29.43,NW,315,7.0,15.0,57,0.00,,,0.02,Rainwise IP-100,2013-03-08 20:12:00,
2013-03-08 15:17:00,39.2,24.0,29.43,NNW,337,11.0,16.0,56,0.00,,,0.02,Rainwise IP-100,2013-03-08 20:17:00,
2013-03-08 15:22:00,38.9,24.0,29.43,NNW,337,6.0,17.0,56,0.00,,,0.02,Rainwise IP-100,2013-03-08 20:22:00,
2013-03-08 15:27:00,38.9,24.0,29.43,NW,315,9.0,14.0,55,0.00,,,0.02,Rainwise IP-100,2013-03-08 20:27:00,
2013-03-08 15:32:00,38.8,24.0,29.43,WNW,292,9.0,15.0,56,0.00,,,0.02,Rainwise IP-100,2013-03-08 20:32:00,
2013-03-08 15:37:00,38.6,24.0,29.43,West,270,7.0,18.0,56,0.00,,,0.02,Rainwise IP-100,2013-03-08 20:37:00,
2013-03-08 15:42:00,38.7,24.0,29.43,NNW,337,9.0,14.0,56,0.00,,,0.02,Rainwise IP-100,2013-03-08 20:42:00,
2013-03-08 15:47:00,38.8,24.0,29.43,NW,315,13.0,15.0,55,0.00,,,0.02,Rainwise IP-100,2013-03-08 20:47:00,
2013-03-08 15:52:00,38.4,24.0,29.44,NW,315,9.0,16.0,55,0.00,,,0.02,Rainwise IP-100,2013-03-08 20:52:00,
2013-03-08 15:57:00,38.9,26.0,29.44,NNW,337,11.0,14.0,57,0.00,,,0.02,Rainwise IP-100,2013-03-08 20:57:00,
2013-03-08 16:02:00,38.8,24.0,29.43,NW,315,7.0,14.0,55,0.00,,,0.02,Rainwise IP-100,2013-03-08 21:02:00,
2013-03-08 16:07:00,39.2,24.0,29.44,NW,315,10.0,17.0,55,0.00,,,0.02,Rainwise IP-100,2013-03-08 21:07:00,
2013-03-08 16:12:00,39.2,24.0,29.44,NW,315,9.0,16.0,54,0.00,,,0.02,Rainwise IP-100,2013-03-08 21:12:00,
2013-03-08 16:17:00,38.8,24.0,29.44,NW,315,6.0,15.0,55,0.00,,,0.02,Rainwise IP-100,2013-03-08 21:17:00,
2013-03-08 16:22:00,39.0,24.0,29.43,NNW,337,14.0,15.0,54,0.00,,,0.02,Rainwise IP-100,2013-03-08 21:22:00,
2013-03-08 16:27:00,39.1,24.0,29.44,NNW,337,7.0,16.0,54,0.00,,,0.02,Rainwise IP-100,2013-03-08 21:27:00,
2013-03-08 16:32:00,39.2,24.0,29.43,NNW,337,7.0,14.0,54,0.00,,,0.02,Rainwise IP-100,2013-03-08 21:32:00,
2013-03-08 16:37:00,39.2,24.0,29.43,NW,315,12.0,15.0,54,0.00,,,0.02,Rainwise IP-100,2013-03-08 21:37:00,
2013-03-08 16:42:00,39.1,24.0,29.44,NW,315,12.0,15.0,54,0.00,,,0.02,Rainwise IP-100,2013-03-08 21:42:00,
2013-03-08 16:47:00,39.2,26.0,29.43,WNW,292,6.0,14.0,57,0.00,,,0.02,Rainwise IP-100,2013-03-08 21:47:00,
2013-03-08 16:52:00,39.0,24.0,29.44,WNW,292,10.0,14.0,54,0.00,,,0.02,Rainwise IP-100,2013-03-08 21:52:00,
2013-03-08 16:57:00,39.1,24.0,29.44,NNW,337,11.0,12.0,54,0.00,,,0.02,Rainwise IP-100,2013-03-08 21:57:00,
2013-03-08 17:02:00,39.1,24.0,29.45,NW,315,7.0,11.0,55,0.00,,,0.02,Rainwise IP-100,2013-03-08 22:02:00,
2013-03-08 17:07:00,38.7,24.0,29.45,NW,315,7.0,11.0,55,0.00,,,0.02,Rainwise IP-100,2013-03-08 22:07:00,
2013-03-08 17:12:00,38.9,26.0,29.45,NNW,337,5.0,15.0,57,0.00,,,0.02,Rainwise IP-100,2013-03-08 22:12:00,
2013-03-08 17:17:00,38.9,26.0,29.45,NNW,337,6.0,11.0,57,0.00,,,0.02,Rainwise IP-100,2013-03-08 22:17:00,
2013-03-08 17:22:00,38.6,26.0,29.45,NNW,337,5.0,10.0,57,0.00,,,0.02,Rainwise IP-100,2013-03-08 22:22:00,
2013-03-08 17:27:00,38.5,24.0,29.45,NW,315,4.0,6.0,55,0.00,,,0.02,Rainwise IP-100,2013-03-08 22:27:00,
2013-03-08 17:32:00,38.1,24.0,29.45,WNW,292,6.0,11.0,57,0.00,,,0.02,Rainwise IP-100,2013-03-08 22:32:00,
2013-03-08 17:37:00,37.9,24.0,29.46,NW,315,4.0,10.0,58,0.00,,,0.02,Rainwise IP-100,2013-03-08 22:37:00,
2013-03-08 17:42:00,37.4,24.0,29.45,North,360,3.0,7.0,59,0.00,,,0.02,Rainwise IP-100,2013-03-08 22:42:00,
2013-03-08 17:47:00,36.9,24.0,29.45,NW,315,5.0,11.0,60,0.00,,,0.02,Rainwise IP-100,2013-03-08 22:47:00,
2013-03-08 17:52:00,36.7,24.0,29.45,NW,315,4.0,6.0,60,0.00,,,0.02,Rainwise IP-100,2013-03-08 22:52:00,
2013-03-08 17:57:00,36.5,24.0,29.45,WNW,292,7.0,9.0,61,0.00,,,0.02,Rainwise IP-100,2013-03-08 22:57:00,
2013-03-08 18:02:00,36.3,24.0,29.45,WNW,292,4.0,7.0,61,0.00,,,0.02,Rainwise IP-100,2013-03-08 23:02:00,
2013-03-08 18:07:00,36.1,24.0,29.45,NW,315,4.0,6.0,62,0.00,,,0.02,Rainwise IP-100,2013-03-08 23:07:00,
2013-03-08 18:12:00,35.8,24.0,29.45,NW,315,2.0,5.0,63,0.00,,,0.02,Rainwise IP-100,2013-03-08 23:12:00,
2013-03-08 18:17:00,35.7,24.0,29.45,NW,315,2.0,6.0,63,0.00,,,0.02,Rainwise IP-100,2013-03-08 23:17:00,
2013-03-08 18:22:00,35.8,24.0,29.45,NW,315,2.0,6.0,62,0.00,,,0.02,Rainwise IP-100,2013-03-08 23:22:00,
2013-03-08 18:27:00,35.5,24.0,29.45,WNW,292,4.0,6.0,63,0.00,,,0.02,Rainwise IP-100,2013-03-08 23:27:00,
2013-03-08 18:32:00,35.5,24.0,29.45,NW,315,3.0,6.0,63,0.00,,,0.02,Rainwise IP-100,2013-03-08 23:32:00,
2013-03-08 18:37:00,35.3,24.0,29.45,WNW,292,2.0,6.0,64,0.00,,,0.02,Rainwise IP-100,2013-03-08 23:37:00,
2013-03-08 18:42:00,34.9,24.0,29.45,WNW,292,1.0,4.0,64,0.00,,,0.02,Rainwise IP-100,2013-03-08 23:42:00,
2013-03-08 18:47:00,34.6,24.0,29.46,WNW,292,3.0,4.0,65,0.00,,,0.02,Rainwise IP-100,2013-03-08 23:47:00,
2013-03-08 18:52:00,34.3,24.0,29.46,WNW,292,2.0,4.0,65,0.00,,,0.02,Rainwise IP-100,2013-03-08 23:52:00,
2013-03-08 18:57:00,34.0,24.0,29.45,WNW,292,2.0,4.0,66,0.00,,,0.02,Rainwise IP-100,2013-03-08 23:57:00,
2013-03-08 19:02:00,33.9,24.0,29.45,West,270,2.0,4.0,66,0.00,,,0.02,Rainwise IP-100,2013-03-09 00:02:00,
2013-03-08 19:07:00,33.8,24.0,29.45,West,270,3.0,4.0,67,0.00,,,0.02,Rainwise IP-100,2013-03-09 00:07:00,
2013-03-08 19:12:00,33.7,24.0,29.45,WNW,292,2.0,4.0,66,0.00,,,0.02,Rainwise IP-100,2013-03-09 00:12:00,
2013-03-08 19:17:00,33.7,24.0,29.45,West,270,3.0,6.0,67,0.00,,,0.02,Rainwise IP-100,2013-03-09 00:17:00,
2013-03-08 19:22:00,33.8,24.0,29.45,WNW,292,3.0,5.0,66,0.00,,,0.02,Rainwise IP-100,2013-03-09 00:22:00,
2013-03-08 19:27:00,33.7,24.0,29.46,West,270,2.0,4.0,66,0.00,,,0.02,Rainwise IP-100,2013-03-09 00:27:00,
2013-03-08 19:32:00,33.7,24.0,29.46,WNW,292,1.0,5.0,66,0.00,,,0.02,Rainwise IP-100,2013-03-09 00:32:00,
2013-03-08 19:37:00,33.2,24.0,29.46,WNW,292,3.0,3.0,68,0.00,,,0.02,Rainwise IP-100,2013-03-09 00:37:00,
2013-03-08 19:42:00,32.9,24.0,29.46,West,270,2.0,4.0,69,0.00,,,0.02,Rainwise IP-100,2013-03-09 00:42:00,
2013-03-08 19:47:00,32.9,24.0,29.46,WNW,292,2.0,4.0,68,0.00,,,0.02,Rainwise IP-100,2013-03-09 00:47:00,
2013-03-08 19:52:00,32.9,24.0,29.46,WNW,292,2.0,3.0,68,0.00,,,0.02,Rainwise IP-100,2013-03-09 00:52:00,
2013-03-08 19:57:00,32.5,24.0,29.47,West,270,2.0,3.0,70,0.00,,,0.02,Rainwise IP-100,2013-03-09 00:57:00,
2013-03-08 20:02:00,32.1,24.0,29.47,West,270,2.0,3.0,70,0.00,,,0.02,Rainwise IP-100,2013-03-09 01:02:00,
2013-03-08 20:07:00,31.4,23.0,29.46,West,270,2.0,4.0,72,0.00,,,0.02,Rainwise IP-100,2013-03-09 01:07:00,
2013-03-08 20:12:00,31.4,23.0,29.46,West,270,3.0,4.0,72,0.00,,,0.02,Rainwise IP-100,2013-03-09 01:12:00,
2013-03-08 20:17:00,31.4,23.0,29.46,West,270,3.0,4.0,72,0.00,,,0.02,Rainwise IP-100,2013-03-09 01:17:00,
2013-03-08 20:22:00,30.9,23.0,29.46,WSW,247,4.0,4.0,73,0.00,,,0.02,Rainwise IP-100,2013-03-09 01:22:00,
2013-03-08 20:27:00,31.1,23.0,29.46,WSW,247,4.0,4.0,73,0.00,,,0.02,Rainwise IP-100,2013-03-09 01:27:00,
2013-03-08 20:32:00,30.9,23.0,29.46,WSW,247,4.0,4.0,72,0.00,,,0.02,Rainwise IP-100,2013-03-09 01:32:00,
2013-03-08 20:38:00,30.9,23.0,29.46,West,270,3.0,4.0,72,0.00,,,0.02,Rainwise IP-100,2013-03-09 01:38:00,
2013-03-08 20:43:00,31.3,23.0,29.46,West,270,4.0,4.0,72,0.00,,,0.02,Rainwise IP-100,2013-03-09 01:43:00,
2013-03-08 20:48:00,31.3,23.0,29.46,West,270,4.0,4.0,72,0.00,,,0.02,Rainwise IP-100,2013-03-09 01:48:00,
2013-03-08 20:53:00,31.5,24.0,29.46,West,270,4.0,4.0,71,0.00,,,0.02,Rainwise IP-100,2013-03-09 01:53:00,
2013-03-08 20:58:00,31.0,23.0,29.46,West,270,4.0,4.0,73,0.00,,,0.02,Rainwise IP-100,2013-03-09 01:58:00,
2013-03-08 21:03:00,31.0,23.0,29.46,West,270,2.0,4.0,73,0.00,,,0.02,Rainwise IP-100,2013-03-09 02:03:00,
2013-03-08 21:08:00,31.3,23.0,29.46,West,270,4.0,4.0,71,0.00,,,0.02,Rainwise IP-100,2013-03-09 02:08:00,
2013-03-08 21:13:00,30.9,23.0,29.46,West,270,2.0,5.0,72,0.00,,,0.02,Rainwise IP-100,2013-03-09 02:13:00,
2013-03-08 21:18:00,30.9,23.0,29.46,WSW,247,3.0,4.0,72,0.00,,,0.02,Rainwise IP-100,2013-03-09 02:18:00,
2013-03-08 21:23:00,30.9,23.0,29.46,West,270,2.0,4.0,72,0.00,,,0.02,Rainwise IP-100,2013-03-09 02:23:00,
2013-03-08 21:28:00,30.6,23.0,29.46,West,270,3.0,4.0,72,0.00,,,0.02,Rainwise IP-100,2013-03-09 02:28:00,
2013-03-08 21:33:00,30.8,23.0,29.46,West,270,2.0,3.0,72,0.00,,,0.02,Rainwise IP-100,2013-03-09 02:33:00,
2013-03-08 21:38:00,30.5,23.0,29.46,West,270,1.0,2.0,72,0.00,,,0.02,Rainwise IP-100,2013-03-09 02:38:00,
2013-03-08 21:43:00,30.2,23.0,29.46,WSW,247,1.0,2.0,73,0.00,,,0.02,Rainwise IP-100,2013-03-09 02:43:00,
2013-03-08 21:48:00,30.5,23.0,29.46,WSW,247,2.0,2.0,72,0.00,,,0.02,Rainwise IP-100,2013-03-09 02:48:00,
2013-03-08 21:53:00,30.3,23.0,29.46,WSW,247,2.0,2.0,73,0.00,,,0.02,Rainwise IP-100,2013-03-09 02:53:00,
2013-03-08 21:58:00,30.4,23.0,29.46,WSW,247,2.0,2.0,73,0.00,,,0.02,Rainwise IP-100,2013-03-09 02:58:00,
2013-03-08 22:03:00,30.6,23.0,29.46,WSW,247,1.0,2.0,73,0.00,,,0.02,Rainwise IP-100,2013-03-09 03:03:00,
2013-03-08 22:08:00,30.5,24.0,29.46,WSW,247,1.0,2.0,74,0.00,,,0.02,Rainwise IP-100,2013-03-09 03:08:00,
2013-03-08 22:13:00,30.4,24.0,29.45,WSW,247,0.0,1.0,74,0.00,,,0.02,Rainwise IP-100,2013-03-09 03:13:00,
2013-03-08 22:18:00,30.0,24.0,29.45,WSW,247,0.0,2.0,75,0.00,,,0.02,Rainwise IP-100,2013-03-09 03:18:00,
2013-03-08 22:23:00,29.7,24.0,29.45,WSW,247,0.0,1.0,77,0.00,,,0.02,Rainwise IP-100,2013-03-09 03:23:00,
2013-03-08 22:28:00,29.8,24.0,29.45,WSW,247,0.0,2.0,78,0.00,,,0.02,Rainwise IP-100,2013-03-09 03:28:00,
2013-03-08 22:33:00,29.8,24.0,29.45,WSW,247,2.0,2.0,78,0.00,,,0.02,Rainwise IP-100,2013-03-09 03:33:00,
2013-03-08 22:40:00,30.3,24.0,29.45,SW,225,1.0,2.0,77,0.00,,,0.02,Rainwise IP-100,2013-03-09 03:40:00,
2013-03-08 22:45:00,30.4,24.0,29.45,SW,225,1.0,2.0,77,0.00,,,0.02,Rainwise IP-100,2013-03-09 03:45:00,
2013-03-08 22:51:00,30.9,24.0,29.45,WNW,292,1.0,4.0,78,0.00,,,0.02,Rainwise IP-100,2013-03-09 03:51:00,
2013-03-08 22:56:00,31.3,24.0,29.45,WNW,292,2.0,3.0,78,0.00,,,0.02,Rainwise IP-100,2013-03-09 03:56:00,
2013-03-08 23:01:00,31.8,26.0,29.45,NW,315,2.0,5.0,77,0.00,,,0.02,Rainwise IP-100,2013-03-09 04:01:00,
2013-03-08 23:06:00,32.0,26.0,29.45,NW,315,2.0,4.0,77,0.00,,,0.02,Rainwise IP-100,2013-03-09 04:06:00,
2013-03-08 23:11:00,32.2,26.0,29.44,WNW,292,1.0,4.0,76,0.00,,,0.02,Rainwise IP-100,2013-03-09 04:11:00,
2013-03-08 23:16:00,32.1,26.0,29.44,West,270,1.0,4.0,77,0.00,,,0.02,Rainwise IP-100,2013-03-09 04:16:00,
2013-03-08 23:21:00,32.2,26.0,29.44,West,270,4.0,6.0,77,0.00,,,0.02,Rainwise IP-100,2013-03-09 04:21:00,
2013-03-08 23:26:00,32.2,26.0,29.44,West,270,3.0,5.0,77,0.00,,,0.02,Rainwise IP-100,2013-03-09 04:26:00,
2013-03-08 23:31:00,31.9,26.0,29.44,WNW,292,2.0,6.0,77,0.00,,,0.02,Rainwise IP-100,2013-03-09 04:31:00,
2013-03-08 23:36:00,31.5,26.0,29.44,WNW,292,2.0,3.0,78,0.00,,,0.02,Rainwise IP-100,2013-03-09 04:36:00,
2013-03-08 23:41:00,31.5,26.0,29.44,WNW,292,3.0,4.0,79,0.00,,,0.02,Rainwise IP-100,2013-03-09 04:41:00,
2013-03-08 23:46:00,31.5,26.0,29.44,WNW,292,2.0,4.0,79,0.00,,,0.02,Rainwise IP-100,2013-03-09 04:46:00,
2013-03-08 23:51:00,31.7,26.0,29.44,WNW,292,1.0,4.0,79,0.00,,,0.02,Rainwise IP-100,2013-03-09 04:51:00,
2013-03-08 23:56:00,31.8,26.0,29.44,WNW,292,1.0,5.0,78,0.00,,,0.02,Rainwise IP-100,2013-03-09 04:56:00,